Weather History for Arbor Vitae, WI

Change the Weather History Date:

Sunday, April 14, 2013

  Actual Average Record
Temperature  
Mean Temperature 24 °F -  
Max Temperature 37 °F 50 °F 80 °F (2003)
Min Temperature 12 °F 27 °F 5 °F (2014)
Degree Days  
Heating Degree Days 40    
Moisture  
Dew Point 23 °F    
Average Humidity 83    
Maximum Humidity 93    
Minimum Humidity 56    
Precipitation  
Precipitation 0.79 in - - ()
Sea Level Pressure  
Sea Level Pressure 29.85 in    
Wind  
Wind Speed 4 mph (ESE)    
Max Wind Speed 16 mph    
Max Gust Speed 26 mph    
Visibility 7 miles    
Events Snow    
Averages and records for this station are not official NWS values.
T = Trace of Precipitation, MM = Missing Value Source: NWS Daily Summary

Daily Weather History Graph

Daily Weather History Graph

Search for Another Location

Airport:

Trip Planner

Search our weather history database for the weather conditions in past years. The results will help you decide how hot, cold, wet, or windy it might be!

Date:

Astronomy

Apr. 14, 2013 Rise Set
Actual Time 6:14 AM CDT 7:44 PM CDT
Civil Twilight 5:43 AM CDT 8:16 PM CDT
Nautical Twilight 5:05 AM CDT 8:54 PM CDT
Astronomical Twilight 4:24 AM CDT 9:34 PM CDT
Moon 8:41 AM CDT (4/14) No Moon Set
Length of Visible Light 14h 33m
Length of Day
13h 30m
Waxing Crescent, 17% of the Moon is Illuminated
Apr 14
Waxing Crescent
Apr 18
First Quarter
Apr 25
Full
May 2
Last Quarter
May 9
New

Hourly Weather History & Observations

Time (CDT) Temp. Windchill Dew Point Humidity Pressure Visibility Wind Dir Wind Speed Gust Speed Precip Events Conditions
12:15 AM 19.4 °F - 17.6 °F 93% 29.93 in 7.0 mi Calm Calm - N/A   Clear
12:35 AM 19.4 °F - 17.6 °F 93% 29.94 in 10.0 mi Calm Calm - N/A   Clear
12:55 AM 19.4 °F - 15.8 °F 86% 29.94 in 7.0 mi Calm Calm - N/A   Clear
1:15 AM 19.4 °F - 15.8 °F 86% 29.94 in 4.0 mi Calm Calm - N/A   Clear
1:35 AM 17.6 °F - 14.0 °F 86% 29.94 in 4.0 mi Calm Calm - N/A   Clear
1:55 AM 17.6 °F - 14.0 °F 86% 29.95 in 5.0 mi Calm Calm - N/A   Clear
2:15 AM 17.6 °F - 14.0 °F 86% 29.95 in 10.0 mi Calm Calm - N/A   Clear
2:35 AM 17.6 °F - 14.0 °F 86% 29.94 in 10.0 mi Calm Calm - N/A   Mostly Cloudy
2:55 AM 17.6 °F - 14.0 °F 86% 29.94 in 10.0 mi Calm Calm - N/A   Scattered Clouds
3:15 AM 17.6 °F - 14.0 °F 86% 29.94 in 10.0 mi Calm Calm - N/A   Clear
3:35 AM 17.6 °F - 14.0 °F 86% 29.93 in 10.0 mi Calm Calm - N/A   Clear
3:55 AM 14.0 °F - 12.2 °F 93% 29.93 in 10.0 mi Calm Calm - N/A   Clear
4:15 AM 14.0 °F - 10.4 °F 86% 29.92 in 10.0 mi Calm Calm - N/A   Clear
4:35 AM 14.0 °F - 12.2 °F 93% 29.93 in 10.0 mi Calm Calm - N/A   Clear
4:55 AM 14.0 °F - 10.4 °F 86% 29.93 in 10.0 mi Calm Calm - N/A   Clear
5:15 AM 14.0 °F - 12.2 °F 93% 29.93 in 10.0 mi Calm Calm - N/A   Clear
5:35 AM 12.2 °F - 8.6 °F 85% 29.94 in 10.0 mi Calm Calm - N/A   Clear
5:55 AM 12.2 °F - 8.6 °F 85% 29.94 in 10.0 mi Calm Calm - N/A   Clear
6:15 AM 12.2 °F - 8.6 °F 85% 29.96 in 10.0 mi Calm Calm - N/A   Clear
6:35 AM 14.0 °F - 10.4 °F 86% 29.94 in 10.0 mi Calm Calm - N/A   Clear
7:15 AM 14.0 °F - 12.2 °F 93% 29.95 in 10.0 mi Calm Calm - N/A   Clear
7:35 AM 17.6 °F - 14.0 °F 86% 29.96 in 10.0 mi Calm Calm - N/A   Scattered Clouds
7:55 AM 21.2 °F 14.9 °F 17.6 °F 86% 29.95 in 10.0 mi ESE 4.6 mph - N/A   Clear
8:15 AM 23.0 °F - 19.4 °F 86% 29.97 in 10.0 mi Calm Calm - N/A   Clear
8:35 AM 26.6 °F 22.6 °F 21.2 °F 80% 29.96 in 10.0 mi SE 3.5 mph - N/A   Clear
8:55 AM 30.2 °F 25.4 °F 23.0 °F 75% 29.95 in 10.0 mi SE 4.6 mph - N/A   Clear
9:15 AM 32.0 °F 25.6 °F 23.0 °F 69% 29.94 in 10.0 mi ESE 6.9 mph - N/A   Clear
9:35 AM 32.0 °F 25.6 °F 21.2 °F 64% 29.94 in 10.0 mi ESE 6.9 mph - N/A   Clear
9:55 AM 33.8 °F 27.7 °F 23.0 °F 65% 29.93 in 10.0 mi ENE 6.9 mph - N/A   Clear
10:15 AM 33.8 °F 27.7 °F 23.0 °F 65% 29.91 in 10.0 mi East 6.9 mph - N/A   Mostly Cloudy
10:35 AM 35.6 °F 29.2 °F 23.0 °F 60% 29.90 in 10.0 mi East 8.1 mph - N/A   Overcast
10:55 AM 35.6 °F 31.7 °F 23.0 °F 60% 29.89 in 10.0 mi East 4.6 mph 16.1 mph N/A   Scattered Clouds
11:15 AM 35.6 °F 29.2 °F 21.2 °F 56% 29.89 in 10.0 mi East 8.1 mph - N/A   Mostly Cloudy
11:35 AM 35.6 °F 29.2 °F 21.2 °F 56% 29.89 in 10.0 mi ESE 8.1 mph - N/A   Overcast
11:55 AM 35.6 °F 28.0 °F 21.2 °F 56% 29.89 in 10.0 mi ESE 10.4 mph - N/A   Overcast
12:15 PM 35.6 °F 28.6 °F 23.0 °F 60% 29.89 in 10.0 mi SE 9.2 mph - N/A   Overcast
12:35 PM 35.6 °F 27.5 °F 23.0 °F 60% 29.90 in 10.0 mi SE 11.5 mph - N/A   Overcast
12:55 PM 35.6 °F 28.0 °F 23.0 °F 60% 29.89 in 10.0 mi ESE 10.4 mph - N/A   Overcast
1:15 PM 37.4 °F 28.5 °F 23.0 °F 56% 29.88 in 10.0 mi ESE 15.0 mph 20.7 mph N/A   Overcast
1:35 PM 37.4 °F 28.9 °F 23.0 °F 56% 29.87 in 10.0 mi ESE 13.8 mph 26.5 mph N/A   Overcast
1:55 PM 37.4 °F 29.3 °F 23.0 °F 56% 29.86 in 10.0 mi ESE 12.7 mph 21.9 mph N/A   Mostly Cloudy
2:15 PM 37.4 °F 28.2 °F 26.6 °F 65% 29.86 in 10.0 mi SE 16.1 mph 20.7 mph N/A   Mostly Cloudy
2:35 PM 35.6 °F 27.1 °F 26.6 °F 70% 29.86 in 4.0 mi ESE 12.7 mph 19.6 mph N/A Snow Light Snow
2:55 PM 35.6 °F 27.1 °F 30.2 °F 81% 29.85 in 2.5 mi ESE 12.7 mph 18.4 mph N/A Snow Light Snow
3:15 PM 33.8 °F 25.8 °F 30.2 °F 87% 29.84 in 1.8 mi ESE 10.4 mph 19.6 mph N/A Snow Light Snow
3:35 PM 32.0 °F 23.6 °F 30.2 °F 93% 29.82 in 1.0 mi ESE 10.4 mph - N/A Snow Light Snow
3:55 PM 32.0 °F 22.5 °F 30.2 °F 93% 29.81 in 0.5 mi ESE 12.7 mph 18.4 mph 0.01 in Snow Snow
4:15 PM 32.0 °F 25.6 °F 30.2 °F 93% 29.79 in 0.5 mi East 6.9 mph 18.4 mph 0.01 in Snow Snow
4:35 PM 32.0 °F 23.6 °F 30.2 °F 93% 29.80 in 0.5 mi East 10.4 mph 20.7 mph 0.03 in Snow Snow
4:55 PM 32.0 °F 24.2 °F 30.2 °F 93% 29.79 in 0.5 mi ESE 9.2 mph 17.3 mph 0.05 in Snow Snow
5:15 PM 32.0 °F 25.6 °F 30.2 °F 93% 29.80 in 0.5 mi ESE 6.9 mph - 0.01 in Snow Snow
5:35 PM 32.0 °F 23.0 °F 30.2 °F 93% 29.81 in 0.5 mi ESE 11.5 mph 17.3 mph 0.03 in Snow Snow
5:55 PM 32.0 °F 23.0 °F 30.2 °F 93% 29.79 in 1.0 mi ESE 11.5 mph 17.3 mph 0.05 in Snow Light Snow
6:15 PM 32.0 °F 24.2 °F 30.2 °F 93% 29.79 in 0.5 mi ESE 9.2 mph 21.9 mph 0.02 in Snow Light Snow
6:35 PM 32.0 °F 23.6 °F 30.2 °F 93% 29.75 in 2.0 mi East 10.4 mph 21.9 mph 0.06 in Snow Light Snow
6:55 PM 32.0 °F 22.5 °F 30.2 °F 93% 29.77 in 1.8 mi ESE 12.7 mph 18.4 mph 0.12 in Snow Light Snow
7:15 PM 32.0 °F 22.1 °F 30.2 °F 93% 29.74 in 4.0 mi ESE 13.8 mph 17.3 mph 0.04 in Snow Light Snow
7:35 PM 32.0 °F 23.0 °F 30.2 °F 93% 29.72 in 2.5 mi ESE 11.5 mph 23.0 mph 0.06 in Snow Light Snow
7:55 PM 32.0 °F 23.0 °F 30.2 °F 93% 29.73 in 4.0 mi ESE 11.5 mph 19.6 mph 0.11 in   Overcast
8:15 PM 32.0 °F 23.0 °F 30.2 °F 93% 29.72 in 3.0 mi ESE 11.5 mph 25.3 mph 0.09 in Snow Light Snow
8:35 PM 33.8 °F 25.8 °F 32.0 °F 93% 29.70 in 3.0 mi East 10.4 mph 25.3 mph 0.17 in Snow Light Snow
8:55 PM 32.0 °F 22.5 °F 30.2 °F 93% 29.70 in 5.0 mi ESE 12.7 mph 20.7 mph 0.21 in   Mostly Cloudy
9:15 PM 32.0 °F 23.0 °F 30.2 °F 93% 29.68 in 5.0 mi ESE 11.5 mph 19.6 mph 0.06 in Snow Light Snow
9:35 PM 32.0 °F 25.6 °F 30.2 °F 93% 29.68 in 7.0 mi ESE 6.9 mph 17.3 mph 0.08 in   Mostly Cloudy
9:55 PM 32.0 °F 25.6 °F 30.2 °F 93% 29.68 in 5.0 mi SE 6.9 mph - 0.02 in   Unknown
10:15 PM 33.8 °F 27.7 °F 32.0 °F 93% 29.68 in 7.0 mi ESE 6.9 mph - 0.02 in   Overcast
10:35 PM 33.8 °F 27.7 °F 32.0 °F 93% 29.67 in 5.0 mi ESE 6.9 mph - 0.05 in   Overcast
10:55 PM 33.8 °F 29.6 °F 32.0 °F 93% 29.67 in 4.0 mi SE 4.6 mph - 0.09 in   Overcast
11:15 PM 33.8 °F 28.6 °F 32.0 °F 93% 29.68 in 4.0 mi SE 5.8 mph - 0.02 in   Unknown
11:35 PM 33.8 °F 30.8 °F 32.0 °F 93% 29.68 in 5.0 mi SE 3.5 mph - 0.06 in   Overcast
11:55 PM 33.8 °F 30.8 °F 32.0 °F 93% 29.67 in 5.0 mi SE 3.5 mph - 0.07 in   Overcast